PRAETORIAN SDA_602

Last updated on Fri Jul 10 2026 00:03:45 GMT+0000 (Coordinated Universal Time)

1 65565U 25203A 26189.92829008 .00000065 00000+0 47828-4 0 9996 2 65565 81.3037 350.6367 0006889 132.0571 228.1173 13.83887663 41700
UTC large
Height (km)
Speed (km/s)
/
Latitude / Longitude
Inclination (degrees)
Orbital Period (minutes)
Azimuth
Elevation
Range (km)
Doppler Factor

Next 0 passes for location: London (51.5072 / 0.1276)

No passes found over London.
PRAETORIAN SDA_602